Location: São Paulo
(23.5507°S, 46.6334°W)
Time: 13:31:28
(UTC-03:00)

Tiros 1 - Pass Details

Date: 17 February 2026
Orbit: 618 x 649 km, 48.4° (Epoch: 11 March)

Event Time Altitude Azimuth Distance (km) Brightness Sun altitude
Rises 20:20:54 0° 282° (WNW) 2,920 11.4 -21.7°
Reaches altitude 10° 20:23:43 10° 265° (W) 2,024 10.7 -22.2°
Maximum altitude 20:27:12 21° 216° (SW) 1,459 9.6 -23.0°
Drops below altitude 10° 20:30:45 10° 168° (SSE) 2,050 9.9 -23.7°
Sets 20:33:38 0° 151° (SSE) 2,970 10.5 -24.3°
